Regional Weather Roundup
Issued by NWS Bismarck, ND

Home | Current Version | Previous Version | Text Only | Print | Product List | Glossary On
Versions: 1 2 3 4 5 6 7 8 9 10 11 12 13 14 15 16 17 18 19 20 21 22 23 24 25 26 27 28 29 30 31 32 33 34 35 36 37 38 39 40 41 42 43 44 45 46 47 48 49 50
000
ASUS43 KBIS 121302
RWRBIS

NWR BROADCAST TEXT
NATIONAL WEATHER SERVICE BISMARCK ND
700 AM CST TUE DEC 12 2017

NOTE: "FAIR" INDICATES FEW OR NO CLOUDS BELOW 12,000 FEET WITH NO
SIGNIFICANT WEATHER AND/OR OBSTRUCTIONS TO VISIBILITY.


CITY           SKY/WX    TMP DP  RH WIND       PRES   REMARKS
WILLISTON        N/A    N/A N/A N/A MISG      30.06F
MINOT          FAIR      30  24  78 SW8       29.99F
MINOT AFB      CLOUDY    29  23  79 W12       29.97F WCI  19
BISMARCK       FAIR      26  24  92 SW5       30.11F
DICKINSON      FAIR      27  22  81 W12       30.05F WCI  17
GARRISON         N/A     26  24  92 W12       30.03F WCI  16
HETTINGER ARPT CLOUDY    20  16  84 CALM      30.13F
JAMESTOWN      FAIR      24  22  91 SW8       30.06F WCI  15
CARRINGTON     FAIR      27  25  93 W8G14     30.05F WCI  18
HAZEN          FAIR      23  23 100 SW6       30.09F WCI  16
LINTON           N/A     23  21  93 CALM      30.14F
MANDAN         PTSUNNY   25  25 100 SW10      30.09F WCI  15
OAKES            N/A     21  21 100 S8        30.13F WCI  12
RUGBY          PTSUNNY   25  25 100 SW9       30.00F WCI  15
STANLEY        FAIR      27  27 100 W9        30.03F WCI  17
TIOGA          FAIR      27  27 100 W10       30.03F WCI  17
WATFORD CITY   FAIR      27  25  93 SW14      30.05F WCI  15
$$

CITY           SKY/WX    TMP DP  RH WIND       PRES   REMARKS
GRAND FORKS    CLOUDY    20  17  88 S9        30.07F WCI   9
GRAND FORKS AF CLOUDY    22  18  86 S9        30.04F WCI  11
DEVILS LAKE    CLOUDY    24  22  91 SW7       30.01F WCI  16
FARGO          CLOUDY    18  14  84 S10       30.11F WCI   6
CANDO          FAIR      25  25 100 W13       30.01F WCI  13
CAVALIER       CLOUDY    19  19 100 S7        30.02F WCI  10
GRAFTON        CLOUDY    19  19 100 S10       30.05F WCI   8
GWINNER          N/A     21  19  93 SW12      30.13F WCI   9
LANGDON        FAIR      27  27 100 SW13      29.98F WCI  16
ROLLA          PTSUNNY   25  25 100 SW3       29.96F
WALHALLA       FAIR      23  23 100 E5        30.00F WCI  17
$$

CITY           SKY/WX    TMP DP  RH WIND       PRES   REMARKS
ABERDEEN       CLOUDY    19  19 100 SW7       30.18F WCI  10
MOBRIDGE       CLOUDY    27  22  81 CALM      30.13F
BUFFALO          N/A     28  20  71 W15       30.07F WCI  16
RAPID CITY     CLOUDY    23   8  52 CALM      30.19F
GLASGOW        CLOUDY    23  18  81 N6        30.09F WCI  16
SIDNEY         CLOUDY    23  21  92 S7        30.09F WCI  15
WOLF POINT     CLOUDY    24  21  88 W8        30.09F WCI  15
GLENDIVE       CLOUDY    22  19  89 S9        30.11F WCI  12
MILES CITY     CLOUDY    24  19  81 S8        30.16F WCI  15
BAKER          CLOUDY    25  20  81 W6        30.14F WCI  18
$$

CITY           SKY/WX    TMP DP  RH WIND       PRES   REMARKS
BILLINGS       CLOUDY    41  18  39 SW25      30.22F
GREAT FALLS    CLOUDY    43   5  20 SW21      30.19F
$$





USA.gov is the U.S. government's official web portal to all federal, state and local government web resources and services.